sat.trackr.live / text

‹ back to catalog

ONEWEB-0350

NORAD 49214 · 2021-083AE

PAYLOAD ACTIVE UNKNOWN

§ Identity

Operator
Country
UK
Launch date
2021-09-14
Launch site
TYMSC
Launch vehicle
Mass (kg)
RCS (m²)

Purposes: comms

External: N2YO · Heavens-Above · Gunter

§ Orbital elements

Epoch: 2026-09-19T21:28:55.192800Z

Period
109.63 min
Inclination
87.8915°
Eccentricity
0.0002742
Mean motion
13.13469311 rev/d
Perigee alt
1,207.7 km
Apogee alt
1,211.8 km
Semi-major
7,587.9 km
B*
-5.0204e-4
RAAN
301.3836°
Arg perigee
78.3670°
Mean anomaly
281.7767°
Rev number
24,336

§ Raw data

ONEWEB-03501 49214U 21083AE  26262.89508325 -.00000171  00000+0 -50204-3 0  99962 49214  87.8915 301.3836 0002742  78.3670 281.7767 13.13469311243368

JSON: /api/v1/satellites/49214 · /tle

For live sub-satellite position, see the globe view (requires WebGL).

§ Visibility from observer

Set your observer location to see the next 7 days of passes ≥ 10°. The values pass through the URL so the page stays shareable.

No JS? Fill the form by hand. The geolocation button needs JavaScript.